Location: Ajisawe
(8.4333°N, 4.3833°E)
Time: 13:51:22
(UTC+00:00)

Courier 1B Rocket - Pass Details

Date: 24 April 2021
Orbit: 920 x 1202 km, 28.2° (Epoch: 07 May)

Event Time Altitude Azimuth Distance (km) Brightness Sun altitude
Rises 22:22:41 0° 310° (NW) 3,801 8.5 -61.0°
Enters shadow 22:22:48 - 311° (NW) 3,760 8.5 -61.0°
Reaches altitude 10° 22:25:36 10° 319° (NW) 2,893 - -61.5°
Maximum altitude 22:32:01 35° 23° (NNE) 1,724 - -62.5°
Drops below altitude 10° 22:38:49 10° 87° (E) 3,067 - -63.5°
Sets 22:41:59 0° 96° (E) 4,057 - -64.0°
